Location: Lafig�re
(44.4503°N, 4.0357°E)
Time: 14:45:39
(UTC+00:00)

Transit 2A Rocket - Pass Details

Date: 27 January 2021
Orbit: 594 x 908 km, 66.7° (Epoch: 06 March)

Event Time Altitude Azimuth Distance (km) Brightness Sun altitude
Rises 10:29:09 0° 190° (S) 3,360 9.2 24.1°
Reaches altitude 10° 10:31:48 10° 183° (S) 2,383 8.9 24.3°
Maximum altitude 10:36:53 41° 115° (ESE) 1,093 6.8 24.6°
Drops below altitude 10° 10:41:34 10° 46° (NE) 2,199 7.2 24.9°
Sets 10:43:55 0° 39° (NE) 3,072 7.8 25.1°
